EW4224 Weather Reports


time (UTC)temp
F
wind
direction
speed
knots
gust
knots
rain 1hr
in
rain 24hr
in
rain mn
in
humidity
%
barometer
mb
20260906121803 67 313 1.7 3.5 0.00 0.00 0.00 98 1049.6
20260906120903 67 306 1.7 3.5 0.00 0.00 0.00 99 1049.4
20260906120003 67 270 1.7 6.1 0.00 0.00 0.00 99 1049.2
20260906115403 67 267 1.7 6.1 0.00 0.00 0.00 99 1049.1
20260906114503 67 32 2.6 7.0 0.00 0.00 0.00 99 1049.0
20260906113603 67 349 1.7 4.3 0.00 0.00 0.00 99 1048.8
20260906112703 67 55 1.7 3.5 0.00 0.00 0.00 99 1048.8
20260906111803 67 295 1.7 3.5 0.00 0.00 0.00 99 1048.6
20260906110903 67 11 1.7 4.3 0.00 0.00 0.00 99 1048.6
20260906110003 67 23 1.7 6.1 0.00 0.00 0.00 99 1048.5
20260906105403 67 36 1.7 3.5 0.00 0.00 0.00 99 1048.4
20260906104503 67 18 1.7 3.5 0.00 0.00 0.00 99 1048.6
20260906103603 67 23 1.7 3.5 0.00 0.00 0.00 99 1048.3
20260906102703 67 5 2.6 5.2 0.00 0.00 0.00 98 1048.2
20260906101803 66 9 1.7 4.3 0.00 0.00 0.00 98 1048.0
20260906101113 66 5 1.7 6.1 0.00 0.00 0.00 98 1048.1
20260906100003 66 8 2.6 6.1 0.00 0.00 0.00 98 1048.1
20260906095403 66 15 1.7 5.2 0.00 0.00 0.00 98 1048.0
20260906094504 66 10 1.7 4.3 0.00 0.00 0.00 98 1048.0
20260906093603 67 10 1.7 4.3 0.00 0.00 0.00 98 1047.9
20260906092914 67 10 1.7 6.1 0.00 0.00 0.00 97 1047.8
20260906091803 67 6 3.5 7.0 0.00 0.00 0.00 98 1047.9
20260906090903 67 6 1.7 5.2 0.00 0.00 0.00 97 1048.0
20260906090004 67 344 1.7 4.3 0.00 0.00 0.00 98 1048.0
20260906085403 67 173 1.7 4.3 0.00 0.00 0.00 98 1047.9
20260906084503 67 356 1.7 5.2 0.00 0.00 0.00 97 1047.9
20260906083603 67 358 2.6 3.5 0.00 0.00 0.00 97 1047.8
20260906082703 67 358 2.6 3.5 0.00 0.00 0.00 97 1047.9
20260906082013 67 354 2.6 6.1 0.00 0.00 0.00 97 1047.7
20260906080903 68 358 1.7 4.3 0.00 0.00 0.00 97 1048.1
20260906080214 68 344 1.7 4.3 0.00 0.00 0.00 97 1048.0
20260906075403 68 165 0.9 1.7 0.00 0.00 0.00 96 1048.0
20260906074503 68 159 0.9 4.3 0.00 0.00 0.00 96 1048.1
20260906073603 68 94 0.9 4.3 0.00 0.00 0.00 96 1048.0
20260906072703 68 86 0.9 1.7 0.00 0.00 0.00 95 1048.0
20260906071803 68 87 0.0 1.7 0.00 0.00 0.00 95 1048.1
20260906070903 68 92 0.9 1.7 0.00 0.00 0.00 95 1048.2
20260906070213 68 85 0.0 1.7 0.00 0.00 0.00 95 1048.3
20260906065613 69 86 0.9 1.7 0.00 0.00 0.00 94 1048.1
20260906064503 69 64 0.0 1.7 0.00 0.00 0.00 94 1048.2
20260906063813 69 53 0.0 1.7 0.00 0.00 0.00 93 1048.0
20260906062913 70 51 0.0 1.7 0.00 0.00 0.00 93 1048.1
20260906061803 70 61 0.0 1.7 0.00 0.00 0.00 92 1048.2
20260906060903 70 44 0.9 1.7 0.00 0.00 0.00 91 1048.1
20260906060213 70 56 0.9 1.7 0.00 0.00 0.00 91 1048.1
20260906055403 70 90 0.9 2.6 0.00 0.00 0.00 91 1048.0
20260906054714 70 107 0.9 3.5 0.00 0.00 0.00 91 1048.1
20260906053603 71 149 1.7 4.3 0.00 0.00 0.00 90 1047.8
20260906052703 71 101 2.6 9.6 0.00 0.00 0.00 90 1048.1
20260906051803 71 91 7.0 11.3 0.00 0.00 0.00 90 1047.8
20260906051113 71 80 6.1 10.4 0.00 0.00 0.00 90 1047.8
20260906050003 71 74 3.5 5.2 0.00 0.00 0.00 90 1047.6
20260906045403 71 74 2.6 4.3 0.00 0.00 0.00 90 1047.4
20260906044503 71 82 2.6 3.5 0.00 0.00 0.00 90 1047.6
20260906043603 71 77 2.6 3.5 0.00 0.00 0.00 89 1047.7
20260906042914 71 81 2.6 3.5 0.00 0.00 0.00 89 1047.6
20260906042013 71 82 2.6 3.5 0.00 0.00 0.00 89 1047.5
20260906041113 71 83 2.6 3.5 0.00 0.00 0.00 89 1047.3
20260906040003 71 82 2.6 3.5 0.00 0.00 0.00 89 1047.3
20260906035403 71 83 2.6 4.3 0.00 0.00 0.00 89 1046.9
20260906034503 71 77 3.5 4.3 0.00 0.00 0.00 88 1046.9
20260906033812 71 85 2.6 4.3 0.00 0.00 0.00 89 1047.1
20260906032703 71 86 3.5 4.3 0.00 0.00 0.00 88 1047.0
20260906031803 72 91 3.5 4.3 0.00 0.00 0.00 88 1046.9
20260906030903 72 88 3.5 5.2 0.00 0.00 0.00 88 1047.0
20260906030003 72 87 4.3 5.2 0.00 0.00 0.00 88 1046.7
20260906025613 72 87 4.3 5.2 0.00 0.00 0.00 88 1046.9
20260906024503 72 96 5.2 13.0 0.00 0.00 0.00 87 1046.7
20260906023603 72 103 7.0 13.0 0.00 0.00 0.00 86 1046.8
20260906022703 72 107 7.8 13.9 0.00 0.00 0.00 86 1046.8
20260906022013 72 227 10.4 13.9 0.00 0.00 0.00 86 1046.8
20260906021114 72 243 11.3 13.9 0.00 0.00 0.00 86 1046.7
20260906020003 72 243 11.3 13.9 0.00 0.00 0.00 86 1046.9
20260906015403 72 243 11.3 13.9 0.00 0.00 0.00 86 1046.7
20260906014503 72 243 11.3 13.9 0.00 0.00 0.00 86 1046.8
20260906013603 72 243 11.3 13.9 0.00 0.00 0.00 86 1046.7
20260906012703 72 243 11.3 17.4 0.00 0.00 0.00 85 1046.9
20260906011803 72 239 13.9 20.0 0.00 0.00 0.00 85 1046.9
20260906010903 72 243 11.3 15.6 0.00 0.00 0.00 86 1046.8
20260906010003 72 241 9.6 15.6 0.00 0.00 0.00 87 1046.7
20260906005403 72 250 5.2 12.2 0.00 0.00 0.00 86 1046.7
20260906004503 74 270 0.9 3.5 0.00 0.00 0.00 85 1046.7
20260906003603 75 334 0.9 1.7 0.00 0.00 0.00 84 1046.4
20260906002703 76 338 1.7 3.5 0.00 0.00 0.00 82 1046.2
20260906002014 76 342 1.7 5.2 0.00 0.00 0.00 82 1046.3
20260906000903 76 341 1.7 7.8 0.00 0.00 0.00 82 1046.1
20260906000003 77 296 2.6 7.8 0.00 0.00 0.00 81 1046.0
20260905235403 77 280 4.3 7.0 0.00 0.00 0.00 81 1045.7
20260905234503 78 279 3.5 7.0 0.00 0.00 0.00 80 1045.4
20260905233813 78 338 3.5 7.8 0.00 0.00 0.00 79 1045.6
20260905232703 80 20 0.9 4.3 0.00 0.00 0.00 77 1045.3
20260905231803 80 325 2.6 11.3 0.00 0.00 0.00 76 1045.6
20260905230903 80 337 6.1 13.9 0.00 0.00 0.00 75 1045.2
20260905230003 81 54 7.0 13.0 0.00 0.00 0.00 74 1045.2
20260905225403 81 28 6.1 13.0 0.00 0.00 0.00 72 1045.2
20260905224503 81 353 6.1 12.2 0.00 0.00 0.00 72 1044.9
20260905223603 82 41 5.2 12.2 0.00 0.00 0.00 70 1044.9
20260905222703 82 22 4.3 10.4 0.00 0.00 0.00 70 1044.7
20260905221803 82 23 3.5 10.4 0.00 0.00 0.00 70 1044.8
20260905220903 82 14 2.6 5.2 0.00 0.00 0.00 72 1044.9
20260905220003 82 356 2.6 7.0 0.00 0.00 0.00 71 1044.9
20260905215403 81 3 2.6 7.0 0.00 0.00 0.00 73 1045.0
20260905214503 82 54 4.3 10.4 0.00 0.00 0.00 73 1044.8
20260905213603 82 59 5.2 10.4 0.00 0.00 0.00 72 1045.0
20260905212703 82 68 4.3 9.6 0.00 0.00 0.00 72 1045.1
20260905211803 82 65 4.3 9.6 0.00 0.00 0.00 73 1045.1
20260905210903 82 60 2.6 7.0 0.00 0.00 0.00 74 1045.0
20260905210214 81 53 2.6 6.1 0.00 0.00 0.00 76 1045.2
20260905205403 81 87 4.3 8.7 0.00 0.00 0.00 75 1045.1
20260905204712 82 82 3.5 7.8 0.00 0.00 0.00 75 1045.2
20260905203603 80 60 2.6 7.0 0.00 0.00 0.00 77 1045.4
20260905202913 81 56 1.7 7.0 0.00 0.00 0.00 76 1045.6
20260905201803 80 171 5.2 8.7 0.00 0.00 0.00 78 1045.6
20260905200903 79 295 3.5 8.7 0.00 0.00 0.00 79 1045.8
20260905200003 79 335 5.2 12.2 0.00 0.00 0.00 80 1045.6
20260905195403 79 341 6.1 13.0 0.00 0.00 0.00 81 1045.7
20260905194503 79 321 7.8 13.0 0.00 0.00 0.00 80 1045.7
20260905193603 80 68 4.3 12.2 0.00 0.00 0.00 80 1045.8
20260905192703 80 87 3.5 9.6 0.00 0.00 0.00 80 1045.6
20260905191803 80 75 3.5 8.7 0.00 0.00 0.00 79 1045.3
20260905190903 81 60 3.5 18.2 0.00 0.00 0.00 79 1045.4
20260905190003 81 72 5.2 18.2 0.00 0.00 0.00 79 1045.6
20260905185614 81 62 4.3 11.3 0.00 0.00 0.00 78 1045.6
20260905184503 82 77 5.2 11.3 0.00 0.00 0.00 77 1045.6
20260905183603 82 56 4.3 10.4 0.00 0.00 0.00 77 1045.7
20260905182703 82 48 5.2 10.4 0.00 0.00 0.00 77 1045.6
20260905181803 82 79 5.2 11.3 0.00 0.00 0.00 78 1045.7
20260905180903 83 49 5.2 19.1 0.00 0.00 0.00 75 1045.8
20260905180003 83 67 4.3 7.8 0.00 0.00 0.00 77 1045.4
20260905175403 82 66 3.5 6.1 0.00 0.00 0.00 77 1045.4
20260905174503 82 71 2.6 7.0 0.00 0.00 0.00 78 1045.4
20260905173603 84 58 1.7 4.3 0.00 0.00 0.00 75 1045.4
20260905172914 83 45 2.6 4.3 0.00 0.00 0.00 77 1045.4
20260905171803 82 71 3.5 7.8 0.00 0.00 0.00 78 1045.6
20260905170903 82 57 3.5 10.4 0.00 0.00 0.00 78 1045.6
20260905170003 81 13 3.5 6.1 0.00 0.00 0.00 80 1045.7
20260905165403 82 37 4.3 9.6 0.00 0.00 0.00 80 1046.0
20260905164713 82 73 4.3 7.0 0.00 0.00 0.00 80 1045.9
20260905163814 82 72 2.6 6.1 0.00 0.00 0.00 80 1045.9
20260905162703 81 31 1.7 7.8 0.00 0.00 0.00 80 1045.7
20260905161803 81 48 5.2 11.3 0.00 0.00 0.00 81 1045.8
20260905161114 80 56 6.1 11.3 0.00 0.00 0.00 83 1045.7
20260905160003 80 36 5.2 13.0 0.00 0.00 0.00 82 1045.9
20260905155403 81 59 9.6 13.0 0.00 0.00 0.00 82 1045.8
20260905154503 79 63 6.1 13.0 0.00 0.00 0.00 84 1045.9
20260905153603 79 305 4.3 9.6 0.00 0.00 0.00 85 1045.6
20260905152913 78 329 5.2 12.2 0.00 0.00 0.00 86 1045.7
20260905151803 76 290 2.6 9.6 0.00 0.00 0.00 89 1045.7
20260905150903 76 307 1.7 5.2 0.00 0.00 0.00 89 1045.4
20260905150003 76 327 2.6 4.3 0.00 0.00 0.00 89 1045.3
20260905145403 76 349 1.7 6.1 0.00 0.00 0.00 90 1045.2
20260905144503 74 295 3.5 7.8 0.00 0.00 0.00 93 1045.1
20260905143603 74 293 3.5 7.8 0.00 0.00 0.00 94 1045.1
20260905142703 74 299 2.6 7.8 0.00 0.00 0.00 94 1045.0
20260905141803 74 308 1.7 5.2 0.00 0.00 0.00 95 1045.2
20260905141113 74 327 1.7 5.2 0.00 0.00 0.00 95 1045.0
20260905140004 74 319 1.7 3.5 0.00 0.00 0.00 95 1045.1
20260905135403 74 333 1.7 4.3 0.00 0.00 0.00 96 1044.9
20260905134503 74 325 1.7 4.3 0.00 0.00 0.00 95 1044.7
20260905133813 74 72 2.6 11.3 0.00 0.00 0.00 95 1044.7
20260905132703 75 88 5.2 12.2 0.00 0.00 0.00 95 1044.9
20260905131803 76 29 2.6 9.6 0.00 0.00 0.00 93 1044.9
20260905130903 76 69 3.5 11.3 0.00 0.00 0.00 93 1044.9
20260905130003 76 59 2.6 3.5 0.00 0.00 0.00 94 1044.8
20260905125403 76 66 1.7 3.5 0.00 0.00 0.00 94 1044.4
20260905124503 75 56 1.7 3.5 0.00 0.00 0.00 96 1044.4
20260905123603 75 60 1.7 3.5 0.00 0.00 0.00 96 1044.3
20260905122914 74 65 1.7 3.5 0.00 0.00 0.00 97 1044.1